sat.trackr.live / text

‹ back to catalog

STARLINK-31166

NORAD 58789 · 2024-012C

PAYLOAD ACTIVE UNKNOWN

§ Identity

Operator
Country
US
Launch date
2024-01-15
Launch site
AFETR
Launch vehicle
Mass (kg)
RCS (m²)

Purposes: comms

External: N2YO · Heavens-Above · Gunter

§ Orbital elements

Epoch: 2026-05-24T23:15:47.874240Z

Period
94.27 min
Inclination
43.0038°
Eccentricity
0.0000865
Mean motion
15.27565755 rev/d
Perigee alt
482.5 km
Apogee alt
483.7 km
Semi-major
6,861.2 km
B*
6.5460e-5
RAAN
94.3162°
Arg perigee
272.6970°
Mean anomaly
87.3783°
Rev number
13,290

§ Raw data

STARLINK-311661 58789U 24012C   26144.96930410  .00001539  00000+0  65460-4 0  99972 58789  43.0038  94.3162 0000865 272.6970  87.3783 15.27565755132903

JSON: /api/v1/satellites/58789 · /tle

For live sub-satellite position, see the globe view (requires WebGL).

§ Visibility from observer

Set your observer location to see the next 7 days of passes ≥ 10°. The values pass through the URL so the page stays shareable.

No JS? Fill the form by hand. The geolocation button needs JavaScript.